CZ-3C DEB, 39347

Orbit data source: Space-Track

CZ-3C DEB, 39347 is space debris in HEO originally from a launch on Sun, 31 Oct 2010 UTC launched from the Xichang Space Center, China (XSC). Debris objects in space refer to the collection of defunct objects orbiting the Earth. Examples of debris include non-operational satellites, rocket bodies, and fragments generated from explosions, collisions, or faulty payload assembly.

Loading next visibility...
Identifier
39347, 2010-057M
Orbit
HEO
Country
Flag of CNCN / PRC
Related business
Manufacturer
CALT
Mission
Spacecraft
Bus & Motor
Unknown
Mass
Unknown
Launch date (UTC)
2010-10-31 (16 years ago)
Launch vehicle
Unknown
Launch site
Xichang Space Center, China (XSC)
Object type
Payload
Rocket body
Debris
Shape & HBR
Unknown shape, 0.8 m
Radar Cross Section
Large (>1 m²)

Expand to show TLE details & history
Last TLE update: 18 hours ago

TLE from 18 hours ago
0 CZ-3C DEB
1 39347U 10057M   26263.91270555  .00002427  00000-0  23082-2 0  9994
2 39347  20.1977 213.0749 6592734 179.2453 182.8551  3.12329943125179
Epoch: 2026-09-20T21:54Z
TLE epoch observation values (Epoch: 2026-09-20T21:54:17.759Z)
Latitude
0.00004°
Longitude
-115.31789°
Altitude
26,415.714 km
Speed
2.037 km/s
True Right ascension
14h 12m 13s
True Declination
0° 00' 00"
Sunlit
Object was in daylight at epoch
Visualization orbit readout
Latitude
Unknown
Longitude
Unknown
Altitude
Unknown
Speed
Unknown
Apparent Right ascension
Unknown
Apparent Declination
Unknown
Sunlit
N/A
Visualization observer readout
Local Sidereal Time
08:58:15
Azimuth
Unknown
Elevation
Unknown
Doppler factor
Unknown
Orbital elements
Apogee altitude
26,431.81 km
Perigee altitude
359.283 km
Semi-major axis
19,773.683 km
Eccentricity
0.65927
Inclination
20.1977°
RAAN
213.0749°
Arg. of periapsis
179.2453°
True anomaly
180.77983°
Mean anomaly
182.8551°
Eccentric anomaly
181.7208°
Mean motion
0.78057 °/min
Orbital period
461.2 mins
BSTAR
0.0023082
Loading maneuver chart data...
Computing Atmospheric mass density...
Loading historical data...
Loading historical data...
Loading historical data...
Loading historical data...
Loading historical data...
Loading historical data...
Loading historical data...

Documentation

Showing up to 5 results
|